• In Hungary
  • List of Countries
  • For 7 days
  • Water Temperature
  • Satellite Maps
  • Weather Map
  • News
  • Weather Widgets
  • user-avatar
    Login

    Hourly Weather Repische

    Today, 24 May, Thursday

    Time Temperature Precipitation Wind Pressure Humidity
    00:00 +19°C° 0.3 mm 4 mps 750 mmHg 81%
    01:00 +19°C° 0.2 mm 4 mps 750 mmHg 81%
    02:00 +17°C° 0.2 mm 5 mps 749 mmHg 81%
    03:00 +17°C° 0.2 mm 5 mps 749 mmHg 81%
    04:00 +17°C° 0 mm 5 mps 749 mmHg 81%
    05:00 +17°C° 0 mm 5 mps 748 mmHg 81%
    06:00 +18°C° 0 mm 4 mps 748 mmHg 81%
    07:00 +19°C° 0 mm 4 mps 748 mmHg 78%
    08:00 +20°C° 0 mm 4 mps 748 mmHg 75%
    09:00 +21°C° 0 mm 3 mps 748 mmHg 71%
    10:00 +24°C° 0 mm 3 mps 748 mmHg 67%
    11:00 +26°C° 0 mm 3 mps 747 mmHg 63%
    12:00 +27°C° 0 mm 3 mps 747 mmHg 58%
    13:00 +27°C° 0 mm 3 mps 747 mmHg 60%
    14:00 +27°C° 0 mm 2 mps 747 mmHg 62%
    15:00 +27°C° 0 mm 2 mps 746 mmHg 63%
    16:00 +26°C° 0.3 mm 3 mps 746 mmHg 68%
    17:00 +25°C° 0.3 mm 3 mps 745 mmHg 72%
    18:00 +23°C° 0.3 mm 4 mps 745 mmHg 77%
    19:00 +22°C° 0.8 mm 5 mps 745 mmHg 78%
    20:00 +21°C° 0.8 mm 6 mps 745 mmHg 79%
    21:00 +21°C° 0.8 mm 7 mps 745 mmHg 80%
    22:00 +20°C° 0.5 mm 7 mps 745 mmHg 80%
    23:00 +20°C° 0.5 mm 7 mps 744 mmHg 80%

    Tomorrow, 25 May, Friday

    Time Temperature Precipitation Wind Pressure Humidity
    00:00 +18°C° 0.5 mm 8 mps 744 mmHg 79%
    01:00 +18°C° 0 mm 7 mps 744 mmHg 80%
    02:00 +17°C° 0 mm 7 mps 744 mmHg 81%
    03:00 +17°C° 0 mm 7 mps 744 mmHg 82%
    04:00 +17°C° 0 mm 7 mps 744 mmHg 82%
    05:00 +17°C° 0 mm 7 mps 744 mmHg 82%
    06:00 +17°C° 0 mm 8 mps 745 mmHg 83%
    07:00 +18°C° 0 mm 8 mps 745 mmHg 79%
    08:00 +19°C° 0 mm 9 mps 745 mmHg 76%
    09:00 +21°C° 0 mm 9 mps 746 mmHg 73%
    10:00 +21°C° 0 mm 9 mps 746 mmHg 72%
    11:00 +21°C° 0 mm 9 mps 747 mmHg 71%
    12:00 +22°C° 0 mm 10 mps 747 mmHg 70%
    13:00 +21°C° 0 mm 9 mps 748 mmHg 71%
    14:00 +21°C° 0 mm 9 mps 748 mmHg 71%
    15:00 +20°C° 0 mm 8 mps 748 mmHg 72%
    16:00 +18°C° 0 mm 8 mps 749 mmHg 71%
    17:00 +18°C° 0 mm 8 mps 749 mmHg 69%
    18:00 +17°C° 0 mm 8 mps 750 mmHg 68%
    19:00 +16°C° 0 mm 8 mps 751 mmHg 65%
    20:00 +13°C° 0 mm 8 mps 752 mmHg 62%
    21:00 +12°C° 0 mm 8 mps 753 mmHg 59%
    22:00 +11°C° 0 mm 7 mps 753 mmHg 59%
    23:00 +10°C° 0 mm 7 mps 754 mmHg 58%

    Day after tomorrow, 26 May, Saturday

    Time Temperature Precipitation Wind Pressure Humidity
    00:00 +9°C° 0 mm 6 mps 754 mmHg 57%
    01:00 +9°C° 0 mm 6 mps 755 mmHg 57%
    02:00 +8°C° 0 mm 6 mps 755 mmHg 58%
    03:00 +7°C° 0 mm 5 mps 756 mmHg 58%
    04:00 +7°C° 0 mm 5 mps 756 mmHg 60%
    05:00 +7°C° 0 mm 5 mps 757 mmHg 63%
    06:00 +7°C° 0 mm 5 mps 757 mmHg 65%
    07:00 +9°C° 0 mm 6 mps 758 mmHg 61%
    08:00 +10°C° 0 mm 7 mps 758 mmHg 57%
    09:00 +11°C° 0 mm 7 mps 759 mmHg 53%
    10:00 +12°C° 0 mm 7 mps 759 mmHg 52%
    11:00 +14°C° 0 mm 7 mps 759 mmHg 50%
    12:00 +15°C° 0 mm 7 mps 759 mmHg 49%
    13:00 +16°C° 0 mm 7 mps 759 mmHg 49%
    14:00 +16°C° 0 mm 6 mps 759 mmHg 48%
    15:00 +17°C° 0 mm 6 mps 759 mmHg 48%
    16:00 +16°C° 0 mm 5 mps 759 mmHg 52%
    17:00 +17°C° 0 mm 4 mps 759 mmHg 57%
    18:00 +17°C° 0 mm 3 mps 759 mmHg 61%
    19:00 +14°C° 0 mm 3 mps 760 mmHg 64%
    20:00 +12°C° 0 mm 3 mps 760 mmHg 67%
    21:00 +10°C° 0 mm 3 mps 760 mmHg 70%
    22:00 +10°C° 0 mm 2 mps 760 mmHg 71%
    23:00 +9°C° 0 mm 2 mps 761 mmHg 71%

    27 May, Sunday

    Time Temperature Precipitation Wind Pressure Humidity
    00:00 +8°C° 0 mm 2 mps 761 mmHg 72%
    01:00 +8°C° 0 mm 2 mps 761 mmHg 72%
    02:00 +7°C° 0 mm 2 mps 761 mmHg 72%
    03:00 +7°C° 0 mm 2 mps 761 mmHg 72%
    04:00 +7°C° 0 mm 2 mps 761 mmHg 71%
    05:00 +8°C° 0 mm 2 mps 761 mmHg 70%
    06:00 +9°C° 0 mm 2 mps 761 mmHg 70%
    07:00 +12°C° 0 mm 2 mps 761 mmHg 64%
    08:00 +13°C° 0 mm 2 mps 761 mmHg 58%
    09:00 +15°C° 0 mm 2 mps 761 mmHg 52%
    10:00 +16°C° 0 mm 2 mps 760 mmHg 49%
    11:00 +17°C° 0 mm 2 mps 760 mmHg 46%
    12:00 +18°C° 0 mm 2 mps 760 mmHg 43%
    13:00 +18°C° 0 mm 2 mps 759 mmHg 43%
    14:00 +19°C° 0 mm 2 mps 759 mmHg 43%
    15:00 +19°C° 0 mm 2 mps 758 mmHg 43%
    16:00 +19°C° 0 mm 2 mps 758 mmHg 47%
    17:00 +19°C° 0 mm 2 mps 757 mmHg 51%
    18:00 +20°C° 0 mm 1 mps 757 mmHg 55%
    19:00 +18°C° 0 mm 1 mps 757 mmHg 58%
    20:00 +15°C° 0 mm 1 mps 757 mmHg 61%
    21:00 +13°C° 0 mm 1 mps 756 mmHg 64%
    22:00 +12°C° 0 mm 1 mps 756 mmHg 66%
    23:00 +12°C° 0 mm 1 mps 756 mmHg 68%

    28 May, Monday

    Time Temperature Precipitation Wind Pressure Humidity
    00:00 +11°C° 0 mm 1 mps 756 mmHg 70%
    01:00 +11°C° 0 mm 1 mps 756 mmHg 72%
    02:00 +10°C° 0 mm 1 mps 756 mmHg 74%
    03:00 +10°C° 0 mm 1 mps 755 mmHg 76%
    04:00 +11°C° 0 mm 1 mps 755 mmHg 76%
    05:00 +11°C° 0 mm 1 mps 755 mmHg 75%
    06:00 +12°C° 0 mm 1 mps 755 mmHg 75%
    07:00 +14°C° 0 mm 2 mps 755 mmHg 70%
    08:00 +16°C° 0 mm 2 mps 755 mmHg 65%
    09:00 +18°C° 0 mm 2 mps 755 mmHg 61%
    10:00 +19°C° 0 mm 3 mps 754 mmHg 59%
    11:00 +20°C° 0 mm 3 mps 754 mmHg 57%
    12:00 +21°C° 0 mm 3 mps 754 mmHg 55%
    13:00 +20°C° 0.1 mm 4 mps 754 mmHg 60%
    14:00 +20°C° 0.1 mm 5 mps 754 mmHg 66%
    15:00 +19°C° 0.1 mm 5 mps 753 mmHg 71%
    16:00 +19°C° 0.1 mm 5 mps 754 mmHg 71%
    17:00 +19°C° 0.1 mm 5 mps 754 mmHg 71%
    18:00 +18°C° 0.1 mm 4 mps 754 mmHg 71%
    19:00 +17°C° 0 mm 4 mps 754 mmHg 76%
    20:00 +14°C° 0 mm 3 mps 754 mmHg 81%
    21:00 +12°C° 0 mm 3 mps 755 mmHg 85%
    22:00 +11°C° 0 mm 3 mps 755 mmHg 85%
    23:00 +10°C° 0 mm 3 mps 755 mmHg 85%

    29 May, Tuesday

    Time Temperature Precipitation Wind Pressure Humidity
    00:00 +10°C° 0 mm 3 mps 756 mmHg 85%
    01:00 +9°C° 0 mm 3 mps 756 mmHg 83%
    02:00 +8°C° 0 mm 3 mps 756 mmHg 82%
    03:00 +8°C° 0 mm 2 mps 756 mmHg 81%
    04:00 +8°C° 0 mm 3 mps 756 mmHg 78%
    05:00 +9°C° 0 mm 3 mps 756 mmHg 75%
    06:00 +9°C° 0 mm 3 mps 756 mmHg 72%
    07:00 +11°C° 0 mm 4 mps 756 mmHg 66%
    08:00 +13°C° 0 mm 4 mps 756 mmHg 61%
    09:00 +14°C° 0 mm 5 mps 756 mmHg 55%
    10:00 +16°C° 0 mm 6 mps 755 mmHg 54%
    11:00 +17°C° 0 mm 6 mps 755 mmHg 53%
    12:00 +18°C° 0 mm 7 mps 755 mmHg 52%
    13:00 +18°C° 0 mm 7 mps 754 mmHg 53%
    14:00 +20°C° 0 mm 7 mps 754 mmHg 54%
    15:00 +20°C° 0 mm 7 mps 754 mmHg 56%
    16:00 +20°C° 0 mm 6 mps 753 mmHg 60%
    17:00 +19°C° 0 mm 5 mps 753 mmHg 63%
    18:00 +19°C° 0 mm 4 mps 753 mmHg 67%
    19:00 +17°C° 0 mm 3 mps 753 mmHg 72%
    20:00 +14°C° 0 mm 3 mps 753 mmHg 76%
    21:00 +13°C° 0 mm 2 mps 754 mmHg 81%
    22:00 +13°C° 0 mm 2 mps 754 mmHg 81%
    23:00 +12°C° 0 mm 1 mps 754 mmHg 80%
    Show more